[[{"header":{"parameterUnit":"m.s-1","parameterCategory":1,"la1":30.2991,"la2":30.254,"lo1":-89.0895,"lo2":-89.0444,"dy":0.0017,"dx":0.0017,"nx":28,"ny":28,"refTime":"2023-08-15T03:00:00:Z","depth":0,"parameterNumber":2,"parameterNumberName":"U-component_of_WINDS"},"data":[0,0,0,0,0,0,0,0,0,0,0,0,0,0,0,0,0,0,0,0,0,0,0,0,0,0,0,0,0,0,0,0,0,0,0,0,0,0,0,0,0,0,0,0,0,0,0,0,0,0,0,0,0,0,0,0,0,0,0.1947,0.1947,0,0.1921,0.1921,0.1921,0.1895,0.1894,0.1894,0.1894,0.1866,0.1866,0.1865,0,0,0,0,0,0,0,0,0,0,0,0,0,0.1974,0.1973,0.1947,0.1947,0.1946,0.1921,0.1921,0.1921,0.1895,0.1894,0.1894,0.1894,0.1866,0.1866,0.1865,0,0,0,0,0,0,0,0,0,0,0,0,0,0.1957,0.1973,0.1947,0.1931,0.1929,0.1921,0.1921,0.1921,0.1895,0.1894,0.1894,0.1893,0.1866,0.1866,0.1865,0.1871,0,0,0.1863,0.1863,0,0,0,0,0,0,0,0,0.1958,0.1956,0.1933,0.1932,0.193,0.1911,0.192,0.1904,0.1895,0.1908,0.1894,0.1893,0.1881,0.1879,0.1876,0.187,0.1869,0.1863,0.1863,0.1862,0.1862,0,0,0,0,0,0,0,0.1959,0.1957,0.1937,0.1933,0.1931,0.1924,0.1921,0.1917,0.1898,0.1907,0.1905,0.1902,0.188,0.1876,0.1875,0.1868,0.1863,0.1863,0.1862,0.1862,0.1869,0.1869,0,0,0,0,0,0,0.1963,0.1958,0.1938,0.1936,0.1943,0.1924,0.1921,0.1917,0.1898,0.1894,0.1903,0.1901,0.1878,0.1875,0.1874,0.1881,0.1862,0.1862,0.1861,0.1868,0.1869,0.1869,0,0,0,0,0,0,0.1963,0.1961,0.1939,0.1946,0.1943,0.1924,0.1921,0.1917,0.1913,0.1895,0.1891,0.1902,0.1877,0.1875,0.1873,0.1879,0.1862,0.1861,0.1868,0.1868,0.1869,0.1895,0,0,0,0,0,0,0.1964,0.1961,0.1964,0.1947,0.1943,0.1938,0.1921,0.1917,0.1912,0.191,0.1893,0.189,0.1876,0.1874,0.1872,0.1878,0.186,0.1867,0.1868,0.1869,0.1893,0.1896,0.1899,0,0,0,0,0,0.1965,0.1971,0.1964,0.1961,0.1945,0.1939,0.1936,0.1921,0.1913,0.1915,0.1903,0.189,0.1879,0.1874,0.1872,0.1878,0.1866,0.1868,0.1869,0.1892,0.1896,0.1899,0,0,0,0,0,0,0.1988,0.1968,0.196,0.1961,0.1952,0.1934,0.1936,0.1925,0.1918,0.1916,0.1897,0.1894,0.1894,0.1886,0.188,0.1884,0.1871,0.1872,0.1889,0.1893,0.1896,0.1898,0.186,0,0,0,0,0,0.1994,0.199,0.1973,0.1975,0.1971,0.1955,0.1951,0.1941,0.193,0.1926,0.1914,0.1904,0.1899,0.1895,0.1889,0.1892,0.1889,0.1895,0.1898,0.1901,0.1902,0.1904,0.1908,0.1874,0.1874,0.1874,0,0,0.2004,0.1993,0.1992,0.198,0.1971,0.1969,0.1952,0.1949,0.1947,0.1925,0.1923,0.1915,0.1902,0.1904,0.1903,0.1896,0.1911,0.1902,0.1905,0.1904,0.1906,0.1909,0.1912,0.1874,0.1874,0.1874,0,0,0.2022,0.2013,0.2014,0.2007,0.1995,0.1985,0.1985,0.197,0.1963,0.1961,0.1946,0.1943,0.1933,0.1926,0.1921,0.1938,0.1926,0.1937,0.1952,0.1954,0.1957,0.1959,0.1967,0.1969,0.1938,0.1938,0.1938,0,0.2036,0.2032,0.2016,0.2015,0.2011,0.1993,0.1995,0.1988,0.1974,0.1972,0.1965,0.1953,0.1944,0.1944,0.1948,0.1944,0.1945,0.1938,0.1958,0.196,0.1962,0.1969,0.1971,0.1939,0.1939,0.1939,0.1939,0,0.205,0.2048,0.205,0.2039,0.2035,0.2035,0.202,0.2018,0.2008,0.1999,0.1997,0.1986,0.1977,0.1977,0.1966,0.1976,0.1972,0.1962,0.1948,0.1967,0.1973,0.1975,0.1941,0.1941,0.194,0.194,0,0,0.2081,0.2063,0.2064,0.2059,0.2046,0.2043,0.2043,0.2036,0.2035,0.2027,0.2027,0.202,0.2011,0.2006,0.1995,0.1997,0.2013,0.1986,0.1986,0.1993,0.2024,0.2032,0.2035,0.2005,0.2006,0.2006,0.2025,0,0.2097,0.2096,0.2083,0.2086,0.2084,0.2068,0.2068,0.206,0.2052,0.2049,0.2039,0.2035,0.2023,0.202,0.2021,0.2011,0.2019,0.2009,0.2006,0.2006,0.2009,0.2038,0.2046,0.2065,0.2027,0.2028,0.2028,0,0.2115,0.2109,0.2112,0.2101,0.2099,0.2099,0.2093,0.209,0.2081,0.2075,0.207,0.2058,0.2058,0.2046,0.2045,0.2039,0.2037,0.2032,0.2032,0.2031,0.2018,0.2039,0.207,0.2073,0.2031,0.2031,0.2031,0,0.2137,0.2131,0.2132,0.2128,0.2114,0.2116,0.211,0.21,0.2098,0.2092,0.209,0.2084,0.2081,0.2076,0.2064,0.2056,0.2066,0.2052,0.2061,0.2061,0.2063,0.2063,0.2095,0.2061,0.2061,0.2061,0.2061,0,0.2157,0.2159,0.2142,0.2143,0.2146,0.2132,0.2135,0.2128,0.212,0.212,0.2105,0.2105,0.2088,0.2086,0.2076,0.2078,0.2077,0.2072,0.2069,0.2073,0.2074,0.2072,0.207,0.2062,0.2062,0.2062,0.2062,0,0.2182,0.2171,0.2172,0.2159,0.2156,0.2159,0.2148,0.2149,0.214,0.214,0.2139,0.2125,0.2123,0.211,0.2103,0.2097,0.2103,0.2097,0.2106,0.2104,0.2114,0.2114,0.2146,0.215,0.2113,0.2113,0.2114,0,0.2195,0.2197,0.2186,0.2185,0.218,0.2178,0.2176,0.2163,0.2161,0.2152,0.2154,0.215,0.2147,0.2143,0.2132,0.2128,0.2123,0.2134,0.2122,0.2127,0.2124,0.2124,0.2125,0.2137,0.2138,0.2138,0.2138,0,0.222,0.2215,0.2212,0.2208,0.2206,0.2202,0.2197,0.2197,0.2182,0.2181,0.2178,0.2176,0.217,0.2167,0.2162,0.2156,0.2145,0.2143,0.2145,0.2149,0.2154,0.2153,0.2114,0.2142,0.2141,0.2141,0.2141,0.2141,0.224,0.2242,0.2235,0.2233,0.2228,0.2224,0.2225,0.2217,0.2215,0.221,0.2202,0.2201,0.2194,0.2185,0.2181,0.218,0.2174,0.2176,0.2177,0.2178,0.2181,0.2155,0.2179,0.2179,0.2179,0.2178,0.2178,0,0.2265,0.226,0.2258,0.2253,0.2251,0.2242,0.2237,0.2236,0.2236,0.2231,0.2228,0.2226,0.2224,0.2214,0.221,0.2212,0.2207,0.2211,0.2211,0.221,0.2186,0.2185,0.2216,0.2216,0.2216,0.2215,0.2215,0.2215,0.2277,0.228,0.2275,0.2276,0.2271,0.227,0.2268,0.2265,0.2261,0.226,0.2258,0.2252,0.2245,0.2241,0.2239,0.2236,0.2236,0.2242,0.2238,0.2215,0.2212,0.2208,0.2208,0.2242,0.2242,0.2263,0.2263,0.2263]},{"header":{"parameterUnit":"m.s-1","parameterCategory":1,"la1":30.2991,"la2":30.254,"lo1":-89.0895,"lo2":-89.0444,"dy":0.0017,"dx":0.0017,"nx":28,"ny":28,"refTime":"2023-08-15T03:00:00:Z","depth":0,"parameterNumber":3,"parameterNumberName":"V-component_of_WINDS"},"data":[0,0,0,0,0,0,0,0,0,0,0,0,0,0,0,0,0,0,0,0,0,0,0,0,0,0,0,0,0,0,0,0,0,0,0,0,0,0,0,0,0,0,0,0,0,0,0,0,0,0,0,0,0,0,0,0,0,0,-3.6939,-3.6939,0,-3.6961,-3.6961,-3.6961,-3.6927,-3.6925,-3.6924,-3.6923,-3.6942,-3.6944,-3.6945,0,0,0,0,0,0,0,0,0,0,0,0,0,-3.6864,-3.6866,-3.6939,-3.6939,-3.694,-3.6961,-3.6961,-3.6962,-3.6927,-3.6925,-3.6924,-3.6922,-3.6941,-3.6943,-3.6945,0,0,0,0,0,0,0,0,0,0,0,0,0,-3.6892,-3.6866,-3.6939,-3.6925,-3.6924,-3.6961,-3.6961,-3.6962,-3.6927,-3.6925,-3.6923,-3.6922,-3.6941,-3.6943,-3.6946,-3.6996,0,0,-3.6953,-3.6954,0,0,0,0,0,0,0,0,-3.6891,-3.6895,-3.6927,-3.6926,-3.6925,-3.6939,-3.6942,-3.6973,-3.6927,-3.6926,-3.6923,-3.6921,-3.6942,-3.6945,-3.6952,-3.6997,-3.6998,-3.6953,-3.6955,-3.6956,-3.6956,0,0,0,0,0,0,0,-3.6889,-3.6894,-3.6948,-3.6927,-3.6926,-3.6917,-3.6919,-3.6948,-3.6944,-3.6926,-3.6923,-3.6927,-3.6941,-3.695,-3.6953,-3.6998,-3.6953,-3.6955,-3.6957,-3.6958,-3.7085,-3.7087,0,0,0,0,0,0,-3.6889,-3.6893,-3.6947,-3.6948,-3.6903,-3.6919,-3.6922,-3.6936,-3.6943,-3.6943,-3.6928,-3.6925,-3.6947,-3.695,-3.6953,-3.7012,-3.6956,-3.6958,-3.6959,-3.7083,-3.7086,-3.7088,0,0,0,0,0,0,-3.6888,-3.6894,-3.6946,-3.692,-3.6926,-3.6923,-3.6939,-3.6938,-3.6946,-3.6945,-3.6944,-3.6938,-3.6946,-3.695,-3.6986,-3.7012,-3.6959,-3.6961,-3.7081,-3.7084,-3.7087,-3.7131,0,0,0,0,0,0,-3.6886,-3.6894,-3.6914,-3.6921,-3.6927,-3.6979,-3.6941,-3.694,-3.6951,-3.6947,-3.6954,-3.6953,-3.6945,-3.6983,-3.6988,-3.7015,-3.6963,-3.7079,-3.7082,-3.7086,-3.7127,-3.7135,-3.7142,0,0,0,0,0,-3.6883,-3.6925,-3.6915,-3.6922,-3.6952,-3.6981,-3.6985,-3.6975,-3.6953,-3.6973,-3.6972,-3.6953,-3.7009,-3.6987,-3.6993,-3.702,-3.7077,-3.7081,-3.7085,-3.7124,-3.7134,-3.7142,0,0,0,0,0,0,-3.692,-3.6925,-3.6915,-3.696,-3.6971,-3.6975,-3.6999,-3.6985,-3.7001,-3.6997,-3.6983,-3.6984,-3.7023,-3.7026,-3.7,-3.707,-3.7039,-3.7045,-3.7066,-3.7075,-3.7083,-3.708,-3.6965,0,0,0,0,0,-3.6934,-3.6958,-3.6961,-3.7001,-3.7007,-3.7002,-3.7014,-3.7006,-3.7016,-3.702,-3.7021,-3.7031,-3.705,-3.7063,-3.7081,-3.7128,-3.7128,-3.715,-3.7158,-3.7164,-3.7168,-3.7192,-3.7202,-3.7102,-3.7102,-3.7102,0,0,-3.6961,-3.6967,-3.6983,-3.7008,-3.7015,-3.7039,-3.7006,-3.7033,-3.705,-3.7023,-3.7057,-3.706,-3.7069,-3.7111,-3.7129,-3.7114,-3.7196,-3.7169,-3.7174,-3.7175,-3.7198,-3.7207,-3.7216,-3.7105,-3.7104,-3.7104,0,0,-3.7024,-3.7032,-3.7065,-3.7074,-3.7085,-3.7082,-3.7091,-3.7098,-3.7098,-3.7133,-3.7113,-3.7133,-3.7168,-3.7175,-3.7183,-3.725,-3.7233,-3.7257,-3.7294,-3.7318,-3.7326,-3.7333,-3.7355,-3.7363,-3.7262,-3.7262,-3.7262,0,-3.7056,-3.7093,-3.7084,-3.7113,-3.7124,-3.7102,-3.7135,-3.7144,-3.716,-3.7168,-3.7151,-3.7194,-3.7199,-3.7241,-3.7258,-3.7266,-3.7274,-3.7255,-3.7326,-3.7332,-3.7339,-3.736,-3.7369,-3.7264,-3.7264,-3.7264,-3.7263,0,-3.7132,-3.7158,-3.7183,-3.7201,-3.7215,-3.7246,-3.7241,-3.7256,-3.7247,-3.7246,-3.7281,-3.7287,-3.7305,-3.7315,-3.7306,-3.7356,-3.7346,-3.7328,-3.7297,-3.7351,-3.7371,-3.7379,-3.7268,-3.7267,-3.7266,-3.7266,0,0,-3.7216,-3.723,-3.7239,-3.7247,-3.7259,-3.7278,-3.7308,-3.7328,-3.734,-3.7353,-3.7377,-3.7407,-3.739,-3.74,-3.7391,-3.7412,-3.7464,-3.7391,-3.7391,-3.7403,-3.7518,-3.7531,-3.754,-3.7453,-3.7455,-3.7456,-3.7517,0,-3.7277,-3.733,-3.7323,-3.7372,-3.7396,-3.7376,-3.7402,-3.7412,-3.7412,-3.743,-3.743,-3.7451,-3.7428,-3.7434,-3.7454,-3.7453,-3.7486,-3.7449,-3.7473,-3.7474,-3.747,-3.7551,-3.7564,-3.7621,-3.7525,-3.7526,-3.7527,0,-3.7355,-3.7372,-3.7424,-3.7433,-3.7443,-3.7466,-3.7483,-3.7502,-3.7513,-3.7511,-3.7522,-3.751,-3.7539,-3.7509,-3.7548,-3.7523,-3.7533,-3.7534,-3.7536,-3.7536,-3.7502,-3.7552,-3.7639,-3.7647,-3.7539,-3.7538,-3.7537,0,-3.7409,-3.7445,-3.7481,-3.7489,-3.75,-3.7517,-3.7522,-3.7531,-3.7543,-3.7558,-3.7566,-3.7584,-3.7593,-3.7607,-3.76,-3.7579,-3.7639,-3.7609,-3.7637,-3.7638,-3.7649,-3.7648,-3.7738,-3.7659,-3.7659,-3.7659,-3.7659,0,-3.7477,-3.751,-3.7506,-3.7527,-3.7563,-3.7555,-3.759,-3.7593,-3.7601,-3.7623,-3.7607,-3.7627,-3.7618,-3.7637,-3.7632,-3.7664,-3.7668,-3.7667,-3.7665,-3.7667,-3.7667,-3.7672,-3.7667,-3.7661,-3.766,-3.766,-3.766,0,-3.7543,-3.7542,-3.7579,-3.7588,-3.7591,-3.7617,-3.7623,-3.7643,-3.7643,-3.767,-3.7676,-3.7674,-3.7696,-3.7691,-3.7715,-3.7711,-3.7751,-3.7745,-3.7748,-3.7746,-3.7774,-3.777,-3.7868,-3.7879,-3.7795,-3.7796,-3.7796,0,-3.7585,-3.761,-3.7622,-3.7636,-3.7643,-3.7665,-3.7678,-3.7671,-3.7685,-3.7699,-3.7717,-3.7738,-3.7754,-3.779,-3.779,-3.7808,-3.7801,-3.7834,-3.7803,-3.7805,-3.7799,-3.7797,-3.7799,-3.7839,-3.784,-3.7841,-3.7842,0,-3.766,-3.7659,-3.7678,-3.7698,-3.7714,-3.7729,-3.7742,-3.7754,-3.7749,-3.7765,-3.7788,-3.7801,-3.7825,-3.7846,-3.7862,-3.7867,-3.7853,-3.7852,-3.7859,-3.786,-3.786,-3.7859,-3.7762,-3.7849,-3.7848,-3.7848,-3.7847,-3.7847,-3.7714,-3.7735,-3.7747,-3.7769,-3.7779,-3.7792,-3.7811,-3.7814,-3.7833,-3.7854,-3.7849,-3.7874,-3.7884,-3.7905,-3.7912,-3.7931,-3.7918,-3.7929,-3.7932,-3.7934,-3.7937,-3.786,-3.7934,-3.7934,-3.7934,-3.7934,-3.7934,0,-3.7787,-3.7794,-3.7815,-3.7835,-3.7852,-3.784,-3.7854,-3.7869,-3.7892,-3.7904,-3.792,-3.7946,-3.7966,-3.7969,-3.7988,-3.8002,-3.7997,-3.8007,-3.8005,-3.8006,-3.7948,-3.7939,-3.8012,-3.8012,-3.8012,-3.8012,-3.8012,-3.8012,-3.7826,-3.7861,-3.7861,-3.79,-3.7906,-3.7932,-3.7942,-3.7953,-3.7962,-3.7992,-3.8009,-3.8012,-3.8019,-3.8038,-3.8056,-3.8056,-3.8063,-3.8076,-3.8073,-3.8018,-3.801,-3.8003,-3.7994,-3.8078,-3.8078,-3.813,-3.813,-3.8131]}]]